Location: Rowland
(34.5359°N, 79.2929°W)
Time: 16:44:42
(UTC+00:00)

SR - Pass Details

Date: 04 October 2022
Orbit: 577 x 874 km, 66.7° (Epoch: 05 December)

Event Time Altitude Azimuth Distance (km) Brightness Sun altitude
Rises 23:51:08 0° 162° (SSE) 3,378 ? -12.0°
Reaches altitude 10° 23:54:24 10° 143° (SE) 2,482 ? -12.6°
Enters shadow 23:57:31 17° 110° (ESE) 2,054 ? -13.3°
Maximum altitude 23:58:01 17° 104° (ESE) 2,047 - -13.4°
Drops below altitude 10° 00:01:40 10° 65° (ENE) 2,526 - -14.1°
Sets 00:05:01 0° 47° (NE) 3,465 - -14.8°
